Helicity
42 58 48 82 132 183 255 251 279 290 226 220 198 253 279 297 413 459 388 460 528 569 434 426 306 349 412 366 323 338 369 318 344 400 330 259 252 226 185 163 156 137 119
52 92 102 57 64 111 163 181 207 231 245 221 195 196 279 321 364 385 447 540 506 533 549 580 461 337 360 353 338 332 362 301 322 378 319 291 269 210 191 194 143 125 116
-4 16 38 54 82 110 146 184 263 246 210 200 206 178 244 379 453 384 425 509 523 568 687 601 597 668 401 402 394 387 356 314 283 334 386 321 279 245 243 199 163 141 114
27 17 23 24 38 64 117 190 195 180 182 253 275 294 287 383 453 429 539 545 655 740 730 715 637 672 633 374 406 396 414 338 295 321 365 349 266 208 207 225 198 146 109
22 49 54 59 76 100 87 73 88 133 172 230 270 345 411 426 522 520 624 724 728 669 693 617 553 481 437 420 437 429 390 357 336 272 315 318 262 237 199 203 210 163 135
30 50 68 73 82 96 106 114 127 145 206 236 236 305 328 424 458 538 446 505 501 570 584 547 521 523 392 457 366 299 345 380 294 271 273 251 213 232 254 241 237 202 148
45 48 75 81 75 175 148 176 179 187 246 215 256 285 315 403 396 479 470 523 557 579 592 629 597 575 445 456 401 326 283 225 337 315 270 225 295 254 280 238 207 184 153
11 48 67 95 136 175 179 177 242 258 237 251 285 338 439 488 572 662 752 696 670 639 629 542 609 537 432 381 482 266 263 268 284 286 301 322 287 316 253 198 186 221 201
13 37 80 104 147 150 134 162 198 282 323 324 373 434 443 496 590 721 780 718 664 630 589 512 507 474 367 254 253 387 285 304 235 251 287 304 259 330 321 305 246 248 212
23 46 84 88 122 152 106 142 187 270 351 387 468 482 499 594 559 615 526 515 492 520 460 500 457 280 213 327 353 313 289 266 328 343 359 373 342 303 265 202 241 230 226
24 51 72 79 93 147 118 110 168 235 345 451 513 498 478 409 380 354 363 399 456 510 497 359 203 236 306 264 282 259 300 334 359 383 386 392 381 356 294 231 212 213 223
38 47 46 67 89 111 148 104 137 182 246 290 293 275 259 272 260 292 309 298 295 293 254 267 263 267 315 281 323 280 361 362 337 356 370 356 344 334 296 266 246 192 158
43 28 22 50 78 106 153 125 104 125 155 154 157 192 218 237 219 162 163 200 229 310 270 277 274 230 230 272 226 257 334 330 318 321 291 295 271 290 289 337 317 307 290
56 27 13 37 76 100 112 127 126 121 131 135 138 157 183 196 179 144 125 193 231 325 255 231 253 268 276 253 266 327 306 270 269 281 300 307 310 263 253 242 267 263 274
65 50 37 45 77 100 107 9 82 103 160 196 168 189 214 188 154 175 216 213 213 208 258 276 272 281 292 304 315 310 299 285 289 280 307 318 288 260 221 215 233 227 190
89 102 95 110 100 119 138 92 59 120 125 134 154 165 190 144 94 89 107 134 136 173 227 231 255 260 242 239 251 238 211 232 249 268 274 249 223 207 205 204 197 175 156
47 120 152 159 141 136 160 156 113 88 100 104 115 131 165 128 104 88 74 89 115 171 200 184 207 198 194 186 182 179 190 186 216 234 225 194 176 181 195 157 138 132 123
21 46 141 150 170 138 171 181 172 151 109 62 26 41 98 138 108 110 131 139 147 137 171 190 191 189 178 176 166 186 220 208 205 184 169 160 170 163 156 135 119 125 132
11 37 108 151 155 171 167 212 198 194 175 131 103 95 96 150 172 172 175 182 169 141 136 156 178 188 180 174 160 179 175 138 148 161 155 146 144 155 127 113 108 105 127
27 51 115 185 192 192 181 215 211 204 217 183 134 127 128 149 154 159 151 166 162 152 142 139 151 181 172 160 160 165 176 172 160 146 134 133 134 129 119 114 105 122 110
49 60 78 119 121 119 151 185 209 199 223 208 178 149 146 156 162 171 163 163 157 150 151 138 136 148 173 175 172 155 140 137 121 125 132 130 129 118 111 109 108 108 119
59 81 88 74 58 76 105 156 196 216 226 234 238 185 148 181 195 185 182 171 146 126 130 149 150 146 156 161 161 149 130 118 122 128 135 135 126 118 125 124 119 115 117
28 8 51 87 129 100 118 176 205 238 247 237 226 193 165 184 190 216 219 208 185 152 144 142 149 140 131 123 112 123 136 116 121 140 143 137 132 127 122 112 122 122 119
4 -12 15 52 74 101 116 154 188 212 226 225 223 209 207 193 181 192 201 179 149 155 137 134 127 128 121 118 114 103 102 115 116 121 143 135 131 135 130 127 115 123 138
4 -11 43 43 58 55 87 155 171 174 186 197 202 210 213 210 198 185 176 127 114 136 121 119 115 108 115 130 132 114 114 144 151 152 151 144 143 131 116 109 131 147 168
13 -1 2 43 51 69 76 91 117 146 160 175 184 180 190 194 188 178 144 119 105 105 130 104 94 103 94 102 129 133 152 168 172 174 161 150 138 126 124 126 154 159 179
Wind_Speed
82 77 76 77 75 77 81 85 88 85 80 78 78 78 77 76 74 71 69 68 62 63 61 59 55 50 49 45 39 38 36 34 28 22 20 17 14 10 5 3 6 10 14
72 71 70 65 65 69 72 74 77 81 78 77 76 80 81 80 80 77 78 73 70 65 64 57 55 55 54 49 42 41 34 35 26 23 15 17 16 12 8 4 7 11 13
66 65 64 62 62 62 60 65 66 73 75 75 75 77 82 83 81 83 83 76 76 67 64 61 60 53 56 53 47 45 35 34 26 24 22 18 15 12 9 8 10 9 13
65 66 63 61 59 58 59 63 64 63 72 71 75 76 79 84 82 78 75 72 68 69 66 64 57 55 54 54 48 42 35 28 26 21 23 21 19 15 13 9 9 9 11
62 59 63 66 68 66 60 58 66 66 61 56 57 59 63 70 77 72 74 67 68 65 64 53 58 57 51 50 41 39 37 33 29 28 24 23 21 20 18 12 11 5 11
58 55 62 66 58 74 75 74 70 63 52 46 45 47 49 59 60 62 53 64 66 63 60 56 53 49 47 44 41 38 38 36 30 28 24 27 24 21 17 14 9 9 19
63 66 61 57 61 69 70 76 65 56 45 43 39 42 49 52 45 51 54 47 55 58 56 54 50 50 40 36 35 32 37 38 33 31 28 28 24 22 17 13 11 10 20
68 64 57 59 56 57 46 44 43 41 37 35 35 36 38 46 39 47 41 34 37 49 52 51 46 45 42 40 33 34 35 29 27 29 28 23 18 18 17 10 7 10 19
69 64 57 58 51 48 35 31 26 25 30 32 30 26 32 28 34 36 34 39 33 36 41 47 47 43 35 31 32 33 28 27 24 24 19 17 14 17 12 6 10 10 20
65 64 57 56 50 51 35 31 28 26 25 20 20 26 18 21 26 34 35 33 37 37 42 32 37 35 36 38 37 34 31 25 22 17 14 12 10 11 8 8 6 8 15
61 62 57 50 46 44 37 30 23 20 18 17 15 17 19 20 23 33 31 38 38 42 42 37 29 34 36 37 36 36 29 23 20 15 13 10 8 5 6 7 8 8 14
58 60 56 48 44 39 36 30 26 14 13 10 11 18 24 25 21 29 26 33 32 34 34 28 29 36 38 38 34 27 25 20 15 14 12 10 7 3 5 8 11 13 21
59 58 54 47 40 33 32 28 30 22 8 8 4 18 23 25 29 26 25 28 26 28 25 29 39 38 37 31 27 25 21 18 16 15 15 8 4 2 3 8 12 15 20
57 54 50 44 38 32 29 24 27 35 41 29 4 17 30 28 26 28 24 25 24 28 36 39 36 32 29 23 19 17 15 16 20 16 12 6 2 2 3 7 11 14 19
55 51 47 41 35 30 23 38 43 42 53 60 63 66 37 32 34 31 33 44 50 45 36 33 33 28 24 22 17 15 15 15 14 12 10 6 4 3 5 7 7 10 15
50 47 44 39 32 28 20 29 33 18 8 21 35 50 45 46 46 44 41 39 35 32 31 29 27 24 21 20 21 19 16 14 11 9 8 7 7 6 4 2 4 8 6
60 42 33 26 33 31 20 16 32 21 10 23 25 14 24 26 23 28 26 27 30 24 22 22 22 21 20 20 22 21 17 11 10 9 9 10 12 8 5 3 2 5 7
72 67 25 13 31 43 32 14 19 24 12 13 8 17 17 23 25 25 29 26 22 28 19 22 23 22 22 21 18 16 14 12 13 16 16 13 9 6 4 3 2 2 4
76 76 29 17 20 44 45 31 12 24 21 22 19 17 19 26 27 32 30 22 20 17 16 16 17 19 18 16 15 14 18 21 20 17 14 10 7 6 5 4 4 1 5
72 67 38 24 25 37 51 44 27 31 31 31 31 27 23 26 27 27 28 22 18 17 16 16 17 18 17 16 17 21 20 19 18 15 10 7 8 7 7 6 5 3 5
68 59 36 25 24 24 47 54 45 37 43 42 41 33 30 29 31 28 27 22 19 19 18 18 19 18 18 17 18 20 19 18 16 12 9 9 10 10 8 7 5 5 7
62 53 32 31 23 18 47 51 52 45 42 47 44 38 36 39 34 27 24 23 24 22 21 19 17 18 20 21 20 19 19 19 14 12 11 11 11 11 9 8 7 8 9
66 63 50 33 26 16 34 44 49 48 45 45 42 37 35 35 31 30 27 25 26 25 23 19 16 15 15 17 18 18 19 19 16 14 14 13 13 12 11 9 9 10 13
66 59 49 29 21 15 23 36 43 45 46 50 47 46 40 36 35 31 26 25 29 27 20 18 16 16 17 16 15 16 15 12 13 14 14 14 13 12 11 11 10 11 14
62 57 43 34 22 21 10 33 39 43 51 48 42 39 41 39 34 29 25 28 29 29 24 20 17 18 19 18 17 17 16 16 15 13 13 13 13 13 12 11 11 15 18
60 56 51 41 25 25 28 20 34 43 45 43 42 41 40 37 34 30 28 30 33 28 24 21 19 18 18 19 19 18 17 17 17 16 13 13 13 13 12 12 13 17 18
Wind_Direction
304 303 295 289 285 280 275 273 271 272 272 271 269 263 259 255 253 251 249 249 247 245 244 244 240 240 241 239 236 241 250 263 262 261 254 204 198 207 221 299 350 350 358
313 308 302 298 293 287 280 276 272 270 269 268 266 264 258 254 251 247 247 246 246 244 241 245 242 240 237 236 235 239 241 258 251 240 223 218 204 216 207 244 309 333 356
314 317 314 305 299 293 289 282 278 272 270 268 267 261 257 252 248 248 245 245 243 242 242 239 243 240 236 235 232 237 236 250 246 244 243 226 212 215 214 260 295 322 343
318 317 313 311 311 305 298 290 282 277 272 272 267 264 256 250 247 245 245 241 240 240 241 241 237 234 235 229 232 224 231 228 243 236 222 213 210 214 218 227 267 307 327
333 335 324 316 310 305 303 300 286 278 276 273 267 262 254 247 243 240 240 239 237 238 237 239 237 236 226 214 223 229 222 228 231 226 216 211 219 213 215 238 261 285 318
349 351 338 325 326 309 299 292 284 280 275 266 262 257 251 249 237 236 233 235 235 234 235 236 230 221 219 218 217 217 215 221 215 221 219 209 218 220 237 224 243 275 303
349 346 351 345 336 325 311 293 280 273 269 258 256 253 248 246 231 226 228 231 232 230 228 219 215 222 214 219 212 218 219 209 205 203 199 215 222 204 202 219 237 272 311
342 352 356 352 350 345 342 319 292 273 265 258 256 252 248 241 225 222 222 222 226 222 214 216 216 219 212 220 225 226 221 224 215 229 229 223 226 200 194 212 213 305 334
342 353 359 358 2 1 0 352 330 291 269 260 256 250 239 225 216 215 218 224 216 214 209 212 218 223 210 191 195 204 205 219 227 233 229 224 201 187 193 188 258 287 317
349 356 2 3 10 10 9 360 324 294 276 268 259 248 219 210 198 213 221 217 214 216 219 223 218 208 192 180 188 187 186 202 209 215 222 228 219 216 223 221 221 273 317
353 359 5 13 18 23 27 28 2 311 286 273 252 241 229 221 219 218 215 216 214 213 212 209 193 184 195 186 185 198 196 199 206 204 211 210 226 240 282 291 280 276 310
354 359 5 15 19 26 40 56 53 348 285 261 236 234 230 224 211 212 210 207 200 196 197 190 170 189 194 196 203 183 177 183 191 197 208 206 204 217 302 313 313 316 322
350 355 2 9 17 29 36 60 80 61 31 259 191 226 224 221 216 207 193 188 184 193 188 186 190 190 195 196 182 173 173 183 190 185 175 184 192 235 317 340 348 348 345
344 350 356 3 10 18 30 54 93 111 119 106 144 217 213 211 205 204 192 189 179 188 191 186 189 195 201 183 176 189 191 174 164 164 164 163 182 254 287 312 320 331 333
336 340 345 352 358 3 25 230 205 210 176 163 168 178 196 207 207 199 196 197 195 194 184 188 194 194 191 204 203 182 164 159 158 156 161 170 183 230 289 321 336 342 336
332 335 337 339 344 343 7 308 266 283 275 237 213 199 200 197 194 194 194 192 187 175 191 192 201 198 189 178 168 164 160 162 163 162 162 165 173 166 145 31 27 358 15
325 331 333 337 322 315 328 324 262 263 86 110 120 202 207 198 174 189 175 163 156 170 184 194 182 180 171 164 162 163 165 170 159 162 160 153 147 138 131 117 87 359 356
316 316 317 294 308 287 287 297 273 255 248 243 160 145 163 163 161 163 154 156 187 220 201 163 163 164 163 164 168 166 162 159 155 152 149 150 149 151 150 152 146 2 3
315 311 330 305 290 280 268 268 250 249 240 239 228 216 182 169 166 153 158 178 171 182 190 190 186 178 184 186 176 168 156 153 153 154 156 160 166 170 176 180 181 222 336
332 326 341 335 307 278 258 255 252 241 237 231 229 220 195 182 173 172 220 214 213 210 203 200 202 207 194 182 168 157 156 157 159 164 175 185 180 183 192 192 194 229 303
344 339 346 342 317 292 258 248 248 241 236 233 232 224 206 204 215 215 223 222 215 217 214 218 217 206 191 181 172 167 168 168 172 185 195 193 190 199 204 202 216 258 297
348 349 356 326 325 308 260 251 245 239 234 233 231 227 214 226 226 220 225 228 232 233 230 221 209 196 187 181 179 178 178 178 189 202 201 202 201 202 199 206 239 264 285
338 323 318 321 327 319 276 255 244 236 232 234 229 220 215 225 225 229 233 233 232 233 233 222 216 208 196 184 181 184 183 184 192 197 200 201 202 205 206 226 246 272 287
328 321 320 349 349 344 280 252 243 236 232 231 229 227 225 226 230 234 236 235 236 235 226 218 215 203 188 189 191 186 186 193 190 192 193 200 206 210 225 241 247 268 289
317 312 332 338 1 326 322 253 243 238 233 235 235 234 230 228 234 236 234 241 237 234 232 226 216 191 185 189 191 188 193 190 191 194 201 207 209 210 226 242 262 283 296
307 304 300 306 336 310 279 277 250 239 238 239 238 235 232 233 237 237 235 240 241 234 227 224 220 202 193 192 192 193 192 191 194 196 205 211 212 222 237 253 264 288 295